Time,TemperatureF,DewpointF,PressureIn,WindDirection,WindDirectionDegrees,WindSpeedMPH,WindSpeedGustMPH,Humidity,HourlyPrecipIn,Conditions,Clouds,dailyrainin,SoftwareType,DateUTC
2013-02-01 00:02:00,40.0,34.0,30.17,East,93,2.0,2.0,79,0.00,,,0.00,Wunderground v.1.15,2013-02-01 07:02:00,
2013-02-01 00:08:00,40.0,34.3,30.17,East,96,1.0,2.0,80,0.00,,,0.00,Wunderground v.1.15,2013-02-01 07:08:00,
2013-02-01 00:13:00,40.1,34.4,30.17,East,96,0.0,0.0,80,0.00,,,0.00,Wunderground v.1.15,2013-02-01 07:13:00,
2013-02-01 00:18:00,40.2,34.5,30.17,ESE,113,1.0,2.0,80,0.00,,,0.00,Wunderground v.1.15,2013-02-01 07:18:00,
2013-02-01 00:23:00,40.3,34.6,30.17,ESE,113,1.0,1.0,80,0.00,,,0.00,Wunderground v.1.15,2013-02-01 07:23:00,
2013-02-01 00:28:00,40.5,34.5,30.17,ESE,122,1.0,2.0,79,0.00,,,0.00,Wunderground v.1.15,2013-02-01 07:28:00,
2013-02-01 00:34:00,40.8,34.1,30.17,SE,142,2.0,2.0,77,0.00,,,0.00,Wunderground v.1.15,2013-02-01 07:34:00,
2013-02-01 00:39:00,41.0,34.0,30.17,South,185,2.0,3.0,76,0.00,,,0.00,Wunderground v.1.15,2013-02-01 07:39:00,
2013-02-01 00:44:00,41.1,33.8,30.17,South,185,2.0,3.0,75,0.00,,,0.00,Wunderground v.1.15,2013-02-01 07:44:00,
2013-02-01 00:49:00,41.3,33.6,30.17,South,185,1.0,3.0,74,0.00,,,0.00,Wunderground v.1.15,2013-02-01 07:49:00,
2013-02-01 00:54:00,41.5,33.5,30.16,South,185,0.0,1.0,73,0.00,,,0.00,Wunderground v.1.15,2013-02-01 07:54:00,
2013-02-01 00:59:00,41.6,33.6,30.16,South,185,0.0,1.0,73,0.00,,,0.00,Wunderground v.1.15,2013-02-01 07:59:00,
2013-02-01 01:05:00,41.6,33.6,30.16,South,185,0.0,0.0,73,0.00,,,0.00,Wunderground v.1.15,2013-02-01 08:05:00,
2013-02-01 01:10:00,41.6,33.6,30.16,South,185,0.0,0.0,73,0.00,,,0.00,Wunderground v.1.15,2013-02-01 08:10:00,
2013-02-01 01:16:00,41.6,33.6,30.16,South,185,0.0,0.0,73,0.00,,,0.00,Wunderground v.1.15,2013-02-01 08:16:00,
2013-02-01 01:21:00,41.5,33.5,30.16,South,185,0.0,0.0,73,0.00,,,0.00,Wunderground v.1.15,2013-02-01 08:21:00,
2013-02-01 01:27:00,41.4,33.7,30.15,South,185,0.0,0.0,74,0.00,,,0.00,Wunderground v.1.15,2013-02-01 08:27:00,
2013-02-01 01:33:00,41.2,33.5,30.16,South,185,0.0,1.0,74,0.00,,,0.00,Wunderground v.1.15,2013-02-01 08:33:00,
2013-02-01 01:39:00,41.0,33.3,30.15,South,185,0.0,1.0,74,0.00,,,0.00,Wunderground v.1.15,2013-02-01 08:39:00,
2013-02-01 01:44:00,40.7,33.1,30.15,South,185,0.0,2.0,74,0.00,,,0.00,Wunderground v.1.15,2013-02-01 08:44:00,
2013-02-01 01:50:00,40.1,32.8,30.16,South,185,1.0,1.0,75,0.00,,,0.00,Wunderground v.1.15,2013-02-01 08:50:00,
2013-02-01 01:55:00,39.8,32.8,30.16,South,185,0.0,2.0,76,0.00,,,0.00,Wunderground v.1.15,2013-02-01 08:55:00,
2013-02-01 02:00:00,39.3,32.7,30.16,South,185,0.0,0.0,77,0.00,,,0.00,Wunderground v.1.15,2013-02-01 09:00:00,
2013-02-01 02:06:00,38.9,32.6,30.16,South,185,0.0,1.0,78,0.00,,,0.00,Wunderground v.1.15,2013-02-01 09:06:00,
2013-02-01 02:11:00,38.7,32.4,30.16,South,185,0.0,1.0,78,0.00,,,0.00,Wunderground v.1.15,2013-02-01 09:11:00,
2013-02-01 02:16:00,38.5,32.6,30.15,South,185,0.0,1.0,79,0.00,,,0.00,Wunderground v.1.15,2013-02-01 09:16:00,
2013-02-01 02:22:00,38.4,32.5,30.15,South,185,0.0,1.0,79,0.00,,,0.00,Wunderground v.1.15,2013-02-01 09:22:00,
2013-02-01 02:27:00,38.3,32.4,30.16,South,185,0.0,1.0,79,0.00,,,0.00,Wunderground v.1.15,2013-02-01 09:27:00,
2013-02-01 02:32:00,38.2,32.3,30.16,South,185,0.0,1.0,79,0.00,,,0.00,Wunderground v.1.15,2013-02-01 09:32:00,
2013-02-01 02:37:00,38.3,32.4,30.16,South,185,0.0,1.0,79,0.00,,,0.00,Wunderground v.1.15,2013-02-01 09:37:00,
2013-02-01 02:43:00,38.3,32.4,30.16,South,185,0.0,0.0,79,0.00,,,0.00,Wunderground v.1.15,2013-02-01 09:43:00,
2013-02-01 02:49:00,38.3,32.4,30.16,South,185,0.0,0.0,79,0.00,,,0.00,Wunderground v.1.15,2013-02-01 09:49:00,
2013-02-01 02:54:00,38.2,32.3,30.16,South,185,0.0,0.0,79,0.00,,,0.00,Wunderground v.1.15,2013-02-01 09:54:00,
2013-02-01 03:00:00,38.2,31.9,30.16,South,185,1.0,3.0,78,0.00,,,0.00,Wunderground v.1.15,2013-02-01 10:00:00,
2013-02-01 03:06:00,38.2,31.6,30.16,South,186,2.0,3.0,77,0.00,,,0.00,Wunderground v.1.15,2013-02-01 10:06:00,
2013-02-01 03:12:00,38.4,31.5,30.16,South,186,1.0,1.0,76,0.00,,,0.00,Wunderground v.1.15,2013-02-01 10:12:00,
2013-02-01 03:18:00,38.5,31.6,30.16,South,186,0.0,1.0,76,0.00,,,0.00,Wunderground v.1.15,2013-02-01 10:18:00,
2013-02-01 03:23:00,38.4,31.5,30.16,South,186,0.0,0.0,76,0.00,,,0.00,Wunderground v.1.15,2013-02-01 10:23:00,
2013-02-01 03:28:00,38.3,31.4,30.16,South,186,0.0,0.0,76,0.00,,,0.00,Wunderground v.1.15,2013-02-01 10:28:00,
2013-02-01 03:34:00,38.2,31.3,30.17,South,186,0.0,2.0,76,0.00,,,0.00,Wunderground v.1.15,2013-02-01 10:34:00,
2013-02-01 03:39:00,38.0,31.1,30.17,South,186,0.0,2.0,76,0.00,,,0.00,Wunderground v.1.15,2013-02-01 10:39:00,
2013-02-01 03:44:00,37.8,31.2,30.16,South,186,0.0,0.0,77,0.00,,,0.00,Wunderground v.1.15,2013-02-01 10:44:00,
2013-02-01 03:49:00,37.7,31.1,30.17,South,186,0.0,0.0,77,0.00,,,0.00,Wunderground v.1.15,2013-02-01 10:49:00,
2013-02-01 03:54:00,37.5,30.9,30.17,South,186,0.0,0.0,77,0.00,,,0.00,Wunderground v.1.15,2013-02-01 10:54:00,
2013-02-01 03:59:00,37.2,30.7,30.17,South,186,0.0,0.0,77,0.00,,,0.00,Wunderground v.1.15,2013-02-01 10:59:00,
2013-02-01 04:04:00,36.9,30.7,30.17,South,186,0.0,0.0,78,0.00,,,0.00,Wunderground v.1.15,2013-02-01 11:04:00,
2013-02-01 04:09:00,36.6,30.7,30.17,South,186,0.0,0.0,79,0.00,,,0.00,Wunderground v.1.15,2013-02-01 11:09:00,
2013-02-01 04:14:00,36.4,30.5,30.17,South,186,0.0,0.0,79,0.00,,,0.00,Wunderground v.1.15,2013-02-01 11:14:00,
2013-02-01 04:19:00,36.3,30.7,30.17,South,186,0.0,0.0,80,0.00,,,0.00,Wunderground v.1.15,2013-02-01 11:19:00,
2013-02-01 04:24:00,36.2,30.3,30.17,South,186,0.0,0.0,79,0.00,,,0.00,Wunderground v.1.15,2013-02-01 11:24:00,
2013-02-01 04:29:00,36.1,30.5,30.17,South,186,0.0,1.0,80,0.00,,,0.00,Wunderground v.1.15,2013-02-01 11:29:00,
2013-02-01 04:34:00,35.9,30.3,30.17,South,186,0.0,1.0,80,0.00,,,0.00,Wunderground v.1.15,2013-02-01 11:34:00,
2013-02-01 04:40:00,35.9,30.3,30.17,South,186,1.0,1.0,80,0.00,,,0.00,Wunderground v.1.15,2013-02-01 11:40:00,
2013-02-01 04:45:00,35.9,30.3,30.17,South,186,1.0,1.0,80,0.00,,,0.00,Wunderground v.1.15,2013-02-01 11:45:00,
2013-02-01 04:51:00,36.0,30.1,30.17,South,186,0.0,1.0,79,0.00,,,0.00,Wunderground v.1.15,2013-02-01 11:51:00,
2013-02-01 04:56:00,36.1,30.2,30.17,South,186,1.0,2.0,79,0.00,,,0.00,Wunderground v.1.15,2013-02-01 11:56:00,
2013-02-01 05:01:00,36.3,30.4,30.16,South,186,1.0,2.0,79,0.00,,,0.00,Wunderground v.1.15,2013-02-01 12:01:00,
2013-02-01 05:07:00,36.4,30.2,30.16,South,186,2.0,2.0,78,0.00,,,0.00,Wunderground v.1.15,2013-02-01 12:07:00,
2013-02-01 05:13:00,36.6,30.1,30.16,South,186,0.0,1.0,77,0.00,,,0.00,Wunderground v.1.15,2013-02-01 12:13:00,
2013-02-01 05:18:00,36.6,30.1,30.17,South,186,0.0,1.0,77,0.00,,,0.00,Wunderground v.1.15,2013-02-01 12:18:00,
2013-02-01 05:24:00,36.6,30.1,30.17,South,186,0.0,0.0,77,0.00,,,0.00,Wunderground v.1.15,2013-02-01 12:24:00,
2013-02-01 05:29:00,36.6,30.1,30.17,South,186,0.0,0.0,77,0.00,,,0.00,Wunderground v.1.15,2013-02-01 12:29:00,
2013-02-01 05:35:00,36.5,30.0,30.17,South,186,0.0,0.0,77,0.00,,,0.00,Wunderground v.1.15,2013-02-01 12:35:00,
2013-02-01 05:41:00,36.4,29.9,30.17,South,186,0.0,0.0,77,0.00,,,0.00,Wunderground v.1.15,2013-02-01 12:41:00,
2013-02-01 05:46:00,36.2,29.7,30.17,South,186,0.0,0.0,77,0.00,,,0.00,Wunderground v.1.15,2013-02-01 12:46:00,
2013-02-01 05:51:00,36.1,29.6,30.17,South,186,0.0,0.0,77,0.00,,,0.00,Wunderground v.1.15,2013-02-01 12:51:00,
2013-02-01 05:56:00,36.0,29.8,30.17,South,186,0.0,1.0,78,0.00,,,0.00,Wunderground v.1.15,2013-02-01 12:56:00,
2013-02-01 06:02:00,35.9,29.7,30.16,South,186,0.0,0.0,78,0.00,,,0.00,Wunderground v.1.15,2013-02-01 13:02:00,
2013-02-01 06:08:00,35.7,29.8,30.17,South,186,1.0,2.0,79,0.00,,,0.00,Wunderground v.1.15,2013-02-01 13:08:00,
2013-02-01 06:13:00,35.6,29.7,30.17,South,186,1.0,1.0,79,0.00,,,0.00,Wunderground v.1.15,2013-02-01 13:13:00,
2013-02-01 06:19:00,35.5,29.3,30.17,South,186,0.0,1.0,78,0.00,,,0.00,Wunderground v.1.15,2013-02-01 13:19:00,
2013-02-01 06:24:00,35.3,29.4,30.17,South,186,0.0,2.0,79,0.00,,,0.00,Wunderground v.1.15,2013-02-01 13:24:00,
2013-02-01 06:29:00,35.0,29.1,30.17,South,186,1.0,2.0,79,0.00,,,0.00,Wunderground v.1.15,2013-02-01 13:29:00,
2013-02-01 06:34:00,34.8,29.3,30.17,South,186,0.0,1.0,80,0.00,,,0.00,Wunderground v.1.15,2013-02-01 13:34:00,
2013-02-01 06:40:00,34.7,29.2,30.17,South,186,0.0,0.0,80,0.00,,,0.00,Wunderground v.1.15,2013-02-01 13:40:00,
2013-02-01 06:45:00,34.5,29.0,30.17,South,186,0.0,0.0,80,0.00,,,0.00,Wunderground v.1.15,2013-02-01 13:45:00,
2013-02-01 06:50:00,34.5,29.3,30.18,South,186,0.0,0.0,81,0.00,,,0.00,Wunderground v.1.15,2013-02-01 13:50:00,
2013-02-01 06:56:00,34.6,29.4,30.18,South,186,0.0,2.0,81,0.00,,,0.00,Wunderground v.1.15,2013-02-01 13:56:00,
2013-02-01 07:01:00,34.7,29.5,30.18,South,186,0.0,0.0,81,0.00,,,0.00,Wunderground v.1.15,2013-02-01 14:01:00,
2013-02-01 07:06:00,34.9,29.4,30.18,South,186,0.0,1.0,80,0.00,,,0.00,Wunderground v.1.15,2013-02-01 14:06:00,
2013-02-01 07:12:00,35.1,29.6,30.18,South,186,0.0,1.0,80,0.00,,,0.00,Wunderground v.1.15,2013-02-01 14:12:00,
2013-02-01 07:17:00,35.2,29.3,30.18,South,186,0.0,2.0,79,0.00,,,0.00,Wunderground v.1.15,2013-02-01 14:17:00,
2013-02-01 07:22:00,35.5,29.3,30.18,South,186,1.0,1.0,78,0.00,,,0.00,Wunderground v.1.15,2013-02-01 14:22:00,
2013-02-01 07:27:00,35.8,29.6,30.18,South,186,1.0,1.0,78,0.00,,,0.00,Wunderground v.1.15,2013-02-01 14:27:00,
2013-02-01 07:32:00,36.1,29.6,30.19,South,186,0.0,0.0,77,0.00,,,0.00,Wunderground v.1.15,2013-02-01 14:32:00,
2013-02-01 07:37:00,36.3,29.8,30.19,South,186,0.0,0.0,77,0.00,,,0.00,Wunderground v.1.15,2013-02-01 14:37:00,
2013-02-01 07:42:00,36.5,30.0,30.19,South,186,0.0,0.0,77,0.00,,,0.00,Wunderground v.1.15,2013-02-01 14:42:00,
2013-02-01 07:47:00,36.6,30.1,30.19,South,186,0.0,1.0,77,0.00,,,0.00,Wunderground v.1.15,2013-02-01 14:47:00,
2013-02-01 07:52:00,36.8,30.6,30.19,South,186,0.0,0.0,78,0.00,,,0.00,Wunderground v.1.15,2013-02-01 14:52:00,
2013-02-01 07:58:00,36.9,30.7,30.20,South,186,0.0,1.0,78,0.00,,,0.00,Wunderground v.1.15,2013-02-01 14:58:00,
2013-02-01 08:03:00,37.7,31.5,30.19,South,186,0.0,1.0,78,0.00,,,0.00,Wunderground v.1.15,2013-02-01 15:03:00,
2013-02-01 08:08:00,38.3,31.7,30.20,South,186,0.0,1.0,77,0.00,,,0.00,Wunderground v.1.15,2013-02-01 15:08:00,
2013-02-01 08:13:00,39.0,31.7,30.20,South,186,0.0,0.0,75,0.00,,,0.00,Wunderground v.1.15,2013-02-01 15:13:00,
2013-02-01 08:19:00,40.0,32.4,30.20,South,186,0.0,1.0,74,0.00,,,0.00,Wunderground v.1.15,2013-02-01 15:19:00,
2013-02-01 08:24:00,40.8,32.1,30.20,South,184,1.0,2.0,71,0.00,,,0.00,Wunderground v.1.15,2013-02-01 15:24:00,
2013-02-01 08:29:00,41.3,32.2,30.21,ENE,69,2.0,3.0,70,0.00,,,0.00,Wunderground v.1.15,2013-02-01 15:29:00,
2013-02-01 08:35:00,41.5,32.4,30.21,ENE,72,2.0,3.0,70,0.00,,,0.00,Wunderground v.1.15,2013-02-01 15:35:00,
2013-02-01 08:40:00,41.8,32.7,30.21,ENE,72,2.0,2.0,70,0.00,,,0.00,Wunderground v.1.15,2013-02-01 15:40:00,
2013-02-01 08:46:00,42.5,32.7,30.21,ENE,72,1.0,2.0,68,0.00,,,0.00,Wunderground v.1.15,2013-02-01 15:46:00,
2013-02-01 08:51:00,42.8,32.2,30.21,ENE,72,1.0,1.0,66,0.00,,,0.00,Wunderground v.1.15,2013-02-01 15:51:00,
2013-02-01 08:56:00,43.7,33.1,30.21,ENE,72,1.0,1.0,66,0.00,,,0.00,Wunderground v.1.15,2013-02-01 15:56:00,
2013-02-01 09:01:00,44.8,33.0,30.21,ENE,72,0.0,0.0,63,0.00,,,0.00,Wunderground v.1.15,2013-02-01 16:01:00,
2013-02-01 09:06:00,45.3,32.6,30.22,ENE,72,0.0,3.0,61,0.00,,,0.00,Wunderground v.1.15,2013-02-01 16:06:00,
2013-02-01 09:11:00,46.9,32.9,30.21,ENE,72,1.0,2.0,58,0.00,,,0.00,Wunderground v.1.15,2013-02-01 16:11:00,
2013-02-01 09:16:00,48.0,32.1,30.22,East,92,1.0,2.0,54,0.00,,,0.00,Wunderground v.1.15,2013-02-01 16:16:00,
2013-02-01 09:21:00,48.8,32.4,30.21,East,92,1.0,2.0,53,0.00,,,0.00,Wunderground v.1.15,2013-02-01 16:21:00,
2013-02-01 09:26:00,48.7,32.3,30.21,East,92,2.0,2.0,53,0.00,,,0.00,Wunderground v.1.15,2013-02-01 16:26:00,
2013-02-01 09:31:00,48.7,32.8,30.21,East,92,2.0,2.0,54,0.00,,,0.00,Wunderground v.1.15,2013-02-01 16:31:00,
2013-02-01 09:37:00,49.5,32.1,30.21,East,92,2.0,2.0,51,0.00,,,0.00,Wunderground v.1.15,2013-02-01 16:37:00,
2013-02-01 09:42:00,50.0,32.1,30.21,East,92,2.0,3.0,50,0.00,,,0.00,Wunderground v.1.15,2013-02-01 16:42:00,
2013-02-01 09:47:00,50.0,32.6,30.21,East,92,2.0,3.0,51,0.00,,,0.00,Wunderground v.1.15,2013-02-01 16:47:00,
2013-02-01 09:52:00,50.3,32.8,30.21,East,92,2.0,3.0,51,0.00,,,0.00,Wunderground v.1.15,2013-02-01 16:52:00,
2013-02-01 09:57:00,51.6,33.0,30.20,East,92,2.0,3.0,49,0.00,,,0.00,Wunderground v.1.15,2013-02-01 16:57:00,
2013-02-01 10:03:00,51.5,31.9,30.20,East,93,2.0,2.0,47,0.00,,,0.00,Wunderground v.1.15,2013-02-01 17:03:00,
2013-02-01 10:08:00,52.2,32.0,30.20,East,93,2.0,2.0,46,0.00,,,0.00,Wunderground v.1.15,2013-02-01 17:08:00,
2013-02-01 10:13:00,53.7,32.8,30.21,East,93,1.0,1.0,45,0.00,,,0.00,Wunderground v.1.15,2013-02-01 17:13:00,
2013-02-01 10:19:00,55.4,31.5,30.21,East,93,1.0,2.0,40,0.00,,,0.00,Wunderground v.1.15,2013-02-01 17:19:00,
2013-02-01 10:24:00,56.6,31.3,30.20,ESE,117,2.0,3.0,38,0.00,,,0.00,Wunderground v.1.15,2013-02-01 17:24:00,
2013-02-01 10:29:00,57.6,30.8,30.21,SE,125,3.0,5.0,36,0.00,,,0.00,Wunderground v.1.15,2013-02-01 17:29:00,
2013-02-01 10:35:00,58.2,32.0,30.20,SE,143,3.0,4.0,37,0.00,,,0.00,Wunderground v.1.15,2013-02-01 17:35:00,
2013-02-01 10:40:00,58.5,30.9,30.20,SE,146,2.0,2.0,35,0.00,,,0.00,Wunderground v.1.15,2013-02-01 17:40:00,
2013-02-01 10:45:00,59.3,30.9,30.20,SSW,204,1.0,4.0,34,0.00,,,0.00,Wunderground v.1.15,2013-02-01 17:45:00,
2013-02-01 10:50:00,59.2,30.1,30.20,SE,131,2.0,2.0,33,0.00,,,0.00,Wunderground v.1.15,2013-02-01 17:50:00,
2013-02-01 10:55:00,59.6,31.2,30.20,South,175,2.0,3.0,34,0.00,,,0.00,Wunderground v.1.15,2013-02-01 17:55:00,
2013-02-01 11:00:00,59.7,30.5,30.20,SSE,147,2.0,2.0,33,0.00,,,0.00,Wunderground v.1.15,2013-02-01 18:00:00,
2013-02-01 11:06:00,60.6,30.6,30.20,SSE,150,2.0,3.0,32,0.00,,,0.00,Wunderground v.1.15,2013-02-01 18:06:00,
2013-02-01 11:11:00,61.1,30.2,30.20,SE,140,2.0,3.0,31,0.00,,,0.00,Wunderground v.1.15,2013-02-01 18:11:00,
2013-02-01 11:17:00,61.9,30.1,30.20,SSE,155,2.0,3.0,30,0.00,,,0.00,Wunderground v.1.15,2013-02-01 18:17:00,
2013-02-01 11:22:00,61.7,29.1,30.20,ESE,117,2.0,3.0,29,0.00,,,0.00,Wunderground v.1.15,2013-02-01 18:22:00,
2013-02-01 11:28:00,62.3,29.6,30.20,SSE,150,2.0,4.0,29,0.00,,,0.00,Wunderground v.1.15,2013-02-01 18:28:00,
2013-02-01 11:34:00,62.7,30.0,30.20,ESE,118,2.0,3.0,29,0.00,,,0.00,Wunderground v.1.15,2013-02-01 18:34:00,
2013-02-01 11:39:00,63.7,30.8,30.20,South,190,1.0,3.0,29,0.00,,,0.00,Wunderground v.1.15,2013-02-01 18:39:00,
2013-02-01 11:45:00,63.8,30.0,30.20,ENE,58,2.0,4.0,28,0.00,,,0.00,Wunderground v.1.15,2013-02-01 18:45:00,
2013-02-01 11:51:00,64.0,30.2,30.19,East,96,3.0,5.0,28,0.00,,,0.00,Wunderground v.1.15,2013-02-01 18:51:00,
2013-02-01 11:57:00,64.2,28.6,30.19,ESE,121,2.0,5.0,26,0.00,,,0.00,Wunderground v.1.15,2013-02-01 18:57:00,
2013-02-01 12:02:00,64.8,30.0,30.19,SSE,161,1.0,2.0,27,0.00,,,0.00,Wunderground v.1.15,2013-02-01 19:02:00,
2013-02-01 12:08:00,64.4,29.7,30.19,East,87,1.0,2.0,27,0.00,,,0.00,Wunderground v.1.15,2013-02-01 19:08:00,
2013-02-01 12:14:00,64.8,29.1,30.18,East,96,2.0,4.0,26,0.00,,,0.00,Wunderground v.1.15,2013-02-01 19:14:00,
2013-02-01 12:19:00,65.0,29.2,30.18,ENE,76,2.0,5.0,26,0.00,,,0.00,Wunderground v.1.15,2013-02-01 19:19:00,
2013-02-01 12:24:00,65.3,30.4,30.17,NE,56,2.0,6.0,27,0.00,,,0.00,Wunderground v.1.15,2013-02-01 19:24:00,
2013-02-01 12:30:00,65.0,29.2,30.17,ENE,75,2.0,2.0,26,0.00,,,0.00,Wunderground v.1.15,2013-02-01 19:30:00,
2013-02-01 12:36:00,65.4,29.6,30.17,East,98,2.0,3.0,26,0.00,,,0.00,Wunderground v.1.15,2013-02-01 19:36:00,
2013-02-01 12:42:00,65.7,29.8,30.17,East,100,1.0,2.0,26,0.00,,,0.00,Wunderground v.1.15,2013-02-01 19:42:00,
2013-02-01 12:48:00,66.3,31.3,30.16,ENE,60,1.0,2.0,27,0.00,,,0.00,Wunderground v.1.15,2013-02-01 19:48:00,
2013-02-01 12:53:00,66.7,29.7,30.16,ENE,73,1.0,2.0,25,0.00,,,0.00,Wunderground v.1.15,2013-02-01 19:53:00,
2013-02-01 12:58:00,66.8,29.8,30.16,ENE,66,1.0,2.0,25,0.00,,,0.00,Wunderground v.1.15,2013-02-01 19:58:00,
2013-02-01 13:04:00,66.9,29.9,30.16,NE,35,1.0,1.0,25,0.00,,,0.00,Wunderground v.1.15,2013-02-01 20:04:00,
2013-02-01 13:09:00,67.6,30.5,30.16,NE,37,2.0,4.0,25,0.00,,,0.00,Wunderground v.1.15,2013-02-01 20:09:00,
2013-02-01 13:15:00,68.3,31.1,30.15,WNW,296,2.0,3.0,25,0.00,,,0.00,Wunderground v.1.15,2013-02-01 20:15:00,
2013-02-01 13:20:00,67.6,29.5,30.15,East,84,2.0,2.0,24,0.00,,,0.00,Wunderground v.1.15,2013-02-01 20:20:00,
2013-02-01 13:25:00,69.2,30.8,30.15,NNE,25,2.0,3.0,24,0.00,,,0.00,Wunderground v.1.15,2013-02-01 20:25:00,
2013-02-01 13:30:00,69.2,29.8,30.15,North,358,1.0,2.0,23,0.00,,,0.00,Wunderground v.1.15,2013-02-01 20:30:00,
2013-02-01 13:35:00,69.4,28.9,30.15,North,354,1.0,2.0,22,0.00,,,0.00,Wunderground v.1.15,2013-02-01 20:35:00,
2013-02-01 13:41:00,69.3,27.7,30.15,NNW,327,1.0,2.0,21,0.00,,,0.00,Wunderground v.1.15,2013-02-01 20:41:00,
2013-02-01 13:46:00,69.9,27.0,30.14,NNW,336,2.0,4.0,20,0.00,,,0.00,Wunderground v.1.15,2013-02-01 20:46:00,
2013-02-01 13:52:00,69.7,26.8,30.14,NNW,328,1.0,5.0,20,0.00,,,0.00,Wunderground v.1.15,2013-02-01 20:52:00,
2013-02-01 13:58:00,70.0,25.8,30.14,WNW,293,2.0,5.0,19,0.00,,,0.00,Wunderground v.1.15,2013-02-01 20:58:00,
2013-02-01 14:03:00,70.7,26.4,30.14,WNW,290,3.0,4.0,19,0.00,,,0.00,Wunderground v.1.15,2013-02-01 21:03:00,
2013-02-01 14:09:00,70.8,27.7,30.14,WNW,300,2.0,4.0,20,0.00,,,0.00,Wunderground v.1.15,2013-02-01 21:09:00,
2013-02-01 14:14:00,70.4,27.4,30.14,NW,308,1.0,4.0,20,0.00,,,0.00,Wunderground v.1.15,2013-02-01 21:14:00,
2013-02-01 14:19:00,71.7,28.5,30.14,WNW,294,1.0,5.0,20,0.00,,,0.00,Wunderground v.1.15,2013-02-01 21:19:00,
2013-02-01 14:24:00,71.3,26.9,30.14,West,279,3.0,5.0,19,0.00,,,0.00,Wunderground v.1.15,2013-02-01 21:24:00,
2013-02-01 14:30:00,71.5,28.3,30.14,WNW,291,3.0,3.0,20,0.00,,,0.00,Wunderground v.1.15,2013-02-01 21:30:00,
2013-02-01 14:36:00,72.3,29.0,30.14,NNE,26,3.0,6.0,20,0.00,,,0.00,Wunderground v.1.15,2013-02-01 21:36:00,
2013-02-01 14:42:00,71.9,26.1,30.14,NNE,33,2.0,3.0,18,0.00,,,0.00,Wunderground v.1.15,2013-02-01 21:42:00,
2013-02-01 14:47:00,71.9,27.4,30.14,WNW,291,1.0,3.0,19,0.00,,,0.00,Wunderground v.1.15,2013-02-01 21:47:00,
2013-02-01 14:53:00,71.8,26.0,30.14,WNW,296,2.0,2.0,18,0.00,,,0.00,Wunderground v.1.15,2013-02-01 21:53:00,
2013-02-01 14:59:00,72.2,27.6,30.14,NNW,341,2.0,2.0,19,0.00,,,0.00,Wunderground v.1.15,2013-02-01 21:59:00,
2013-02-01 15:05:00,72.4,26.5,30.14,NNW,333,2.0,8.0,18,0.00,,,0.00,Wunderground v.1.15,2013-02-01 22:05:00,
2013-02-01 15:10:00,72.4,27.8,30.14,WNW,291,2.0,5.0,19,0.00,,,0.00,Wunderground v.1.15,2013-02-01 22:10:00,
2013-02-01 15:15:00,71.8,26.0,30.14,NE,42,1.0,5.0,18,0.00,,,0.00,Wunderground v.1.15,2013-02-01 22:15:00,
2013-02-01 15:21:00,72.2,26.3,30.13,NW,304,2.0,4.0,18,0.00,,,0.00,Wunderground v.1.15,2013-02-01 22:21:00,
2013-02-01 15:27:00,72.2,26.3,30.13,WNW,292,2.0,4.0,18,0.00,,,0.00,Wunderground v.1.15,2013-02-01 22:27:00,
2013-02-01 15:32:00,71.6,25.8,30.13,North,354,2.0,4.0,18,0.00,,,0.00,Wunderground v.1.15,2013-02-01 22:32:00,
2013-02-01 15:37:00,71.2,28.0,30.14,NNW,346,2.0,5.0,20,0.00,,,0.00,Wunderground v.1.15,2013-02-01 22:37:00,
2013-02-01 15:43:00,70.9,27.8,30.14,WNW,286,3.0,6.0,20,0.00,,,0.00,Wunderground v.1.15,2013-02-01 22:43:00,
2013-02-01 15:49:00,70.7,27.6,30.14,NNW,345,3.0,6.0,20,0.00,,,0.00,Wunderground v.1.15,2013-02-01 22:49:00,
2013-02-01 15:55:00,70.3,28.5,30.14,WNW,288,3.0,4.0,21,0.00,,,0.00,Wunderground v.1.15,2013-02-01 22:55:00,
2013-02-01 16:01:00,70.3,28.5,30.14,NNW,327,2.0,2.0,21,0.00,,,0.00,Wunderground v.1.15,2013-02-01 23:01:00,
2013-02-01 16:07:00,69.7,29.1,30.14,WNW,301,3.0,4.0,22,0.00,,,0.00,Wunderground v.1.15,2013-02-01 23:07:00,
2013-02-01 16:13:00,69.5,29.0,30.14,NW,305,3.0,6.0,22,0.00,,,0.00,Wunderground v.1.15,2013-02-01 23:13:00,
2013-02-01 16:18:00,68.7,29.4,30.14,North,10,3.0,6.0,23,0.00,,,0.00,Wunderground v.1.15,2013-02-01 23:18:00,
2013-02-01 16:23:00,68.1,29.9,30.14,NW,304,3.0,5.0,24,0.00,,,0.00,Wunderground v.1.15,2013-02-01 23:23:00,
2013-02-01 16:28:00,67.9,29.7,30.14,NNW,346,3.0,5.0,24,0.00,,,0.00,Wunderground v.1.15,2013-02-01 23:28:00,
2013-02-01 16:34:00,68.2,30.0,30.14,WNW,303,2.0,7.0,24,0.00,,,0.00,Wunderground v.1.15,2013-02-01 23:34:00,
2013-02-01 16:39:00,67.8,29.7,30.14,NW,313,2.0,7.0,24,0.00,,,0.00,Wunderground v.1.15,2013-02-01 23:39:00,
2013-02-01 16:44:00,67.2,29.2,30.14,WNW,298,2.0,6.0,24,0.00,,,0.00,Wunderground v.1.15,2013-02-01 23:44:00,
2013-02-01 16:50:00,66.8,29.8,30.14,WNW,287,4.0,7.0,25,0.00,,,0.00,Wunderground v.1.15,2013-02-01 23:50:00,
2013-02-01 16:56:00,66.6,29.6,30.14,WNW,290,5.0,7.0,25,0.00,,,0.00,Wunderground v.1.15,2013-02-01 23:56:00,
2013-02-01 17:01:00,66.5,30.5,30.14,WNW,303,5.0,5.0,26,0.00,,,0.00,Wunderground v.1.15,2013-02-02 00:01:00,
2013-02-01 17:06:00,66.5,30.5,30.14,NW,312,4.0,6.0,26,0.00,,,0.00,Wunderground v.1.15,2013-02-02 00:06:00,
2013-02-01 17:11:00,66.3,30.4,30.14,West,271,4.0,4.0,26,0.00,,,0.00,Wunderground v.1.15,2013-02-02 00:11:00,
2013-02-01 17:17:00,66.1,30.2,30.14,WNW,303,3.0,5.0,26,0.00,,,0.00,Wunderground v.1.15,2013-02-02 00:17:00,
2013-02-01 17:24:00,65.8,30.9,30.14,West,275,2.0,3.0,27,0.00,,,0.00,Wunderground v.1.15,2013-02-02 00:24:00,
2013-02-01 17:29:00,65.3,30.4,30.15,NW,310,2.0,2.0,27,0.00,,,0.00,Wunderground v.1.15,2013-02-02 00:29:00,
2013-02-01 17:34:00,65.0,30.2,30.15,WNW,294,2.0,7.0,27,0.00,,,0.00,Wunderground v.1.15,2013-02-02 00:34:00,
2013-02-01 17:39:00,64.7,30.8,30.15,WNW,289,2.0,2.0,28,0.00,,,0.00,Wunderground v.1.15,2013-02-02 00:39:00,
2013-02-01 17:45:00,64.3,30.5,30.15,NW,306,1.0,2.0,28,0.00,,,0.00,Wunderground v.1.15,2013-02-02 00:45:00,
2013-02-01 17:50:00,64.0,31.1,30.15,NW,306,1.0,1.0,29,0.00,,,0.00,Wunderground v.1.15,2013-02-02 00:50:00,
2013-02-01 17:55:00,63.6,30.7,30.15,WNW,299,1.0,2.0,29,0.00,,,0.00,Wunderground v.1.15,2013-02-02 00:55:00,
2013-02-01 18:00:00,63.2,31.2,30.15,WNW,299,1.0,1.0,30,0.00,,,0.00,Wunderground v.1.15,2013-02-02 01:00:00,
2013-02-01 18:05:00,62.8,30.9,30.15,WNW,299,0.0,1.0,30,0.00,,,0.00,Wunderground v.1.15,2013-02-02 01:05:00,
2013-02-01 18:10:00,62.4,31.3,30.16,WNW,299,0.0,0.0,31,0.00,,,0.00,Wunderground v.1.15,2013-02-02 01:10:00,
2013-02-01 18:15:00,62.0,31.8,30.16,WNW,299,0.0,1.0,32,0.00,,,0.00,Wunderground v.1.15,2013-02-02 01:15:00,
2013-02-01 18:20:00,61.7,31.5,30.16,WNW,299,0.0,0.0,32,0.00,,,0.00,Wunderground v.1.15,2013-02-02 01:20:00,
2013-02-01 18:26:00,61.1,31.8,30.16,WNW,299,0.0,1.0,33,0.00,,,0.00,Wunderground v.1.15,2013-02-02 01:26:00,
2013-02-01 18:31:00,60.6,32.1,30.16,WNW,299,0.0,1.0,34,0.00,,,0.00,Wunderground v.1.15,2013-02-02 01:31:00,
2013-02-01 18:36:00,60.1,31.6,30.16,WNW,299,0.0,1.0,34,0.00,,,0.00,Wunderground v.1.15,2013-02-02 01:36:00,
2013-02-01 18:42:00,59.6,31.9,30.16,WNW,299,0.0,1.0,35,0.00,,,0.00,Wunderground v.1.15,2013-02-02 01:42:00,
2013-02-01 18:47:00,59.1,32.1,30.16,WNW,299,1.0,2.0,36,0.00,,,0.00,Wunderground v.1.15,2013-02-02 01:47:00,
2013-02-01 18:53:00,58.5,32.3,30.16,WNW,299,1.0,1.0,37,0.00,,,0.00,Wunderground v.1.15,2013-02-02 01:53:00,
2013-02-01 18:58:00,58.1,32.6,30.16,WNW,299,0.0,1.0,38,0.00,,,0.00,Wunderground v.1.15,2013-02-02 01:58:00,
2013-02-01 19:03:00,57.7,32.9,30.17,WNW,299,0.0,0.0,39,0.00,,,0.00,Wunderground v.1.15,2013-02-02 02:03:00,
2013-02-01 19:08:00,57.3,33.2,30.17,WNW,299,0.0,0.0,40,0.00,,,0.00,Wunderground v.1.15,2013-02-02 02:08:00,
2013-02-01 19:13:00,56.9,32.8,30.17,WNW,299,0.0,0.0,40,0.00,,,0.00,Wunderground v.1.15,2013-02-02 02:13:00,
2013-02-01 19:18:00,56.6,33.2,30.18,WNW,299,0.0,0.0,41,0.00,,,0.00,Wunderground v.1.15,2013-02-02 02:18:00,
2013-02-01 19:23:00,56.1,33.3,30.18,WNW,299,0.0,0.0,42,0.00,,,0.00,Wunderground v.1.15,2013-02-02 02:23:00,
2013-02-01 19:28:00,55.6,33.4,30.18,WNW,299,0.0,0.0,43,0.00,,,0.00,Wunderground v.1.15,2013-02-02 02:28:00,
2013-02-01 19:33:00,55.1,33.0,30.18,WNW,299,0.0,0.0,43,0.00,,,0.00,Wunderground v.1.15,2013-02-02 02:33:00,
2013-02-01 19:38:00,54.7,32.6,30.18,WNW,299,0.0,0.0,43,0.00,,,0.00,Wunderground v.1.15,2013-02-02 02:38:00,
2013-02-01 19:44:00,54.4,32.9,30.18,WNW,299,0.0,0.0,44,0.00,,,0.00,Wunderground v.1.15,2013-02-02 02:44:00,
2013-02-01 19:49:00,54.0,32.6,30.18,WNW,299,0.0,0.0,44,0.00,,,0.00,Wunderground v.1.15,2013-02-02 02:49:00,
2013-02-01 19:54:00,53.6,32.8,30.18,WNW,299,0.0,0.0,45,0.00,,,0.00,Wunderground v.1.15,2013-02-02 02:54:00,
2013-02-01 19:59:00,53.3,33.0,30.18,WNW,299,0.0,1.0,46,0.00,,,0.00,Wunderground v.1.15,2013-02-02 02:59:00,
2013-02-01 20:04:00,52.9,32.1,30.18,WNW,299,0.0,1.0,45,0.00,,,0.00,Wunderground v.1.15,2013-02-02 03:04:00,
2013-02-01 20:09:00,52.7,31.9,30.18,WNW,299,0.0,1.0,45,0.00,,,0.00,Wunderground v.1.15,2013-02-02 03:09:00,
2013-02-01 20:15:00,52.4,32.2,30.19,WNW,299,0.0,1.0,46,0.00,,,0.00,Wunderground v.1.15,2013-02-02 03:15:00,
2013-02-01 20:20:00,52.2,32.0,30.19,WNW,299,0.0,0.0,46,0.00,,,0.00,Wunderground v.1.15,2013-02-02 03:20:00,
2013-02-01 20:25:00,52.0,32.4,30.19,WNW,299,0.0,0.0,47,0.00,,,0.00,Wunderground v.1.15,2013-02-02 03:25:00,
2013-02-01 20:30:00,51.9,31.7,30.20,WNW,299,0.0,0.0,46,0.00,,,0.00,Wunderground v.1.15,2013-02-02 03:30:00,
2013-02-01 20:35:00,51.7,31.6,30.20,WNW,299,0.0,0.0,46,0.00,,,0.00,Wunderground v.1.15,2013-02-02 03:35:00,
2013-02-01 20:40:00,51.6,32.0,30.20,WNW,299,0.0,0.0,47,0.00,,,0.00,Wunderground v.1.15,2013-02-02 03:40:00,
2013-02-01 20:45:00,51.5,31.4,30.20,WNW,299,0.0,0.0,46,0.00,,,0.00,Wunderground v.1.15,2013-02-02 03:45:00,
2013-02-01 20:50:00,51.3,32.3,30.20,WNW,299,0.0,0.0,48,0.00,,,0.00,Wunderground v.1.15,2013-02-02 03:50:00,
2013-02-01 20:55:00,51.0,32.5,30.21,WNW,299,0.0,1.0,49,0.00,,,0.00,Wunderground v.1.15,2013-02-02 03:55:00,
2013-02-01 21:00:00,50.9,32.4,30.21,WNW,299,0.0,0.0,49,0.00,,,0.00,Wunderground v.1.15,2013-02-02 04:00:00,
2013-02-01 21:05:00,50.8,32.3,30.21,WNW,299,0.0,0.0,49,0.00,,,0.00,Wunderground v.1.15,2013-02-02 04:05:00,
2013-02-01 21:11:00,50.5,33.0,30.21,WNW,299,0.0,1.0,51,0.00,,,0.00,Wunderground v.1.15,2013-02-02 04:11:00,
2013-02-01 21:17:00,50.1,33.1,30.21,WNW,299,1.0,2.0,52,0.00,,,0.00,Wunderground v.1.15,2013-02-02 04:17:00,
2013-02-01 21:22:00,49.9,33.0,30.21,WNW,299,1.0,2.0,52,0.00,,,0.00,Wunderground v.1.15,2013-02-02 04:22:00,
2013-02-01 21:28:00,49.8,33.3,30.22,WNW,299,1.0,2.0,53,0.00,,,0.00,Wunderground v.1.15,2013-02-02 04:28:00,
2013-02-01 21:33:00,49.6,33.2,30.22,WNW,299,1.0,1.0,53,0.00,,,0.00,Wunderground v.1.15,2013-02-02 04:33:00,
2013-02-01 21:38:00,49.4,33.4,30.22,WNW,299,1.0,2.0,54,0.00,,,0.00,Wunderground v.1.15,2013-02-02 04:38:00,
2013-02-01 21:44:00,49.0,33.1,30.22,WNW,299,2.0,2.0,54,0.00,,,0.00,Wunderground v.1.15,2013-02-02 04:44:00,
2013-02-01 21:50:00,48.7,33.2,30.22,WNW,299,1.0,1.0,55,0.00,,,0.00,Wunderground v.1.15,2013-02-02 04:50:00,
2013-02-01 21:55:00,48.5,33.1,30.22,WNW,299,1.0,2.0,55,0.00,,,0.00,Wunderground v.1.15,2013-02-02 04:55:00,
2013-02-01 22:00:00,48.5,33.1,30.22,WNW,299,1.0,1.0,55,0.00,,,0.00,Wunderground v.1.15,2013-02-02 05:00:00,
2013-02-01 22:02:00,48.4,33.0,30.22,WNW,299,1.0,1.0,55,0.00,,,0.00,Wunderground v.1.15,2013-02-02 05:02:00,
2013-02-01 22:03:00,48.5,33.1,30.22,WNW,299,1.0,1.0,55,0.00,,,0.00,Wunderground v.1.15,2013-02-02 05:03:00,
2013-02-01 22:04:00,48.5,33.1,30.22,WNW,299,1.0,1.0,55,0.00,,,0.00,Wunderground v.1.15,2013-02-02 05:04:00,
2013-02-01 22:10:00,48.3,33.3,30.22,WNW,299,1.0,1.0,56,0.00,,,0.00,Wunderground v.1.15,2013-02-02 05:10:00,
2013-02-01 22:16:00,48.3,33.3,30.22,WNW,299,1.0,2.0,56,0.00,,,0.00,Wunderground v.1.15,2013-02-02 05:16:00,
2013-02-01 22:21:00,48.1,33.6,30.22,WNW,299,1.0,1.0,57,0.00,,,0.00,Wunderground v.1.15,2013-02-02 05:21:00,
2013-02-01 22:26:00,47.9,33.4,30.22,WNW,299,0.0,1.0,57,0.00,,,0.00,Wunderground v.1.15,2013-02-02 05:26:00,
2013-02-01 22:31:00,47.8,33.3,30.22,WNW,299,0.0,0.0,57,0.00,,,0.00,Wunderground v.1.15,2013-02-02 05:31:00,
2013-02-01 22:37:00,47.6,33.5,30.22,WNW,299,0.0,0.0,58,0.00,,,0.00,Wunderground v.1.15,2013-02-02 05:37:00,
2013-02-01 22:42:00,47.5,33.4,30.22,WNW,299,0.0,0.0,58,0.00,,,0.00,Wunderground v.1.15,2013-02-02 05:42:00,
2013-02-01 22:48:00,47.2,33.2,30.22,WNW,299,0.0,0.0,58,0.00,,,0.00,Wunderground v.1.15,2013-02-02 05:48:00,
2013-02-01 22:53:00,46.9,33.3,30.22,WNW,299,0.0,2.0,59,0.00,,,0.00,Wunderground v.1.15,2013-02-02 05:53:00,
2013-02-01 22:58:00,46.5,33.4,30.22,WNW,299,1.0,2.0,60,0.00,,,0.00,Wunderground v.1.15,2013-02-02 05:58:00,
2013-02-01 23:04:00,46.2,33.5,30.22,WNW,299,1.0,2.0,61,0.00,,,0.00,Wunderground v.1.15,2013-02-02 06:04:00,
2013-02-01 23:09:00,46.0,33.3,30.22,WNW,299,1.0,2.0,61,0.00,,,0.00,Wunderground v.1.15,2013-02-02 06:09:00,
2013-02-01 23:14:00,46.0,33.3,30.22,WNW,299,0.0,1.0,61,0.00,,,0.00,Wunderground v.1.15,2013-02-02 06:14:00,
2013-02-01 23:20:00,45.8,33.1,30.22,WNW,299,0.0,0.0,61,0.00,,,0.00,Wunderground v.1.15,2013-02-02 06:20:00,
2013-02-01 23:26:00,45.6,33.3,30.22,WNW,299,0.0,0.0,62,0.00,,,0.00,Wunderground v.1.15,2013-02-02 06:26:00,
2013-02-01 23:32:00,45.3,33.4,30.22,WNW,299,1.0,1.0,63,0.00,,,0.00,Wunderground v.1.15,2013-02-02 06:32:00,
2013-02-01 23:37:00,45.1,33.6,30.22,WNW,299,1.0,1.0,64,0.00,,,0.00,Wunderground v.1.15,2013-02-02 06:37:00,
2013-02-01 23:42:00,44.9,33.5,30.22,WNW,299,1.0,2.0,64,0.00,,,0.00,Wunderground v.1.15,2013-02-02 06:42:00,
2013-02-01 23:48:00,44.8,33.4,30.22,WNW,299,0.0,2.0,64,0.00,,,0.00,Wunderground v.1.15,2013-02-02 06:48:00,
2013-02-01 23:53:00,44.7,33.6,30.22,WNW,299,0.0,0.0,65,0.00,,,0.00,Wunderground v.1.15,2013-02-02 06:53:00,
2013-02-01 23:59:00,44.5,33.5,30.22,WNW,299,0.0,1.0,65,0.00,,,0.00,Wunderground v.1.15,2013-02-02 06:59:00,